Weather in Nikolayevka

Russia / Republic of Mordovia     54°19′55″N   46°30′54″E
temp.,
°C
wind,
m/s
gust,
m/s
humid.,
%
clouds,
%
prec.,
mm/h
press.,
hPa
HPBL,
m
27 january, wed
wed2700:00−1s51193100 0.0 1021474
03:00+1s51291100 0.0 1021668
06:00+1s41291100 0.0 1020718
09:00+1s51489100 0.0 1019629
12:00+1s61392100 0.0 1019650
15:000s61489100 0.0 1018563
18:00−1s51390100 0.0 1019527
21:00−2s51390100 0.0 1018546
28 january, thu
thu2800:00−3s51485100 0.0 1018522
03:00−2s61583100 0.0 1017459
06:00−2s41186100 0.0 1016421
09:00−3s41087100 0.0 1017447
12:00−2sse4985100 0.0 1016438
15:00−3sse498899 0.0 1016405
18:00−6se3892100 0.0 1016217
21:00−9sse3692100 0.0 1015175
29 january, fri
fri2900:00−10se2494100 0.0 1015113
03:00−9se2596100 0.0 1013184
06:00−7ese2695100 0.0 1012248
09:00−6se3794100 0.1 1010451
12:00−4sse4790100 0.1 1008583
15:00−4sse4795100 0.6 1005429
18:00−4sse4994100 0.7 1005462
21:00−4s4119399 0.8 1004410
30 january, sat
sat3000:00−2s5109399 0.0 1003569
03:00−1s61289100 0.1 1002870
06:00−2sse51291100 0.1 1001773
09:00−1sse71592100 0.3 998925
12:000ssw61476100 1.7 9971424
15:00−2sw6128498 2.1 999992
18:00−5sw6138974 0.0 1003758
21:00−6ssw5138874 0.1 1005480
31 january, sun
sun3100:00−8ssw499298 0.0 1006227
03:00−7s388999 0.0 1006207
06:00−4se3996100 0.6 1004363
09:00+1ssw61499100 2.1 1002770
12:00+2s81890100 0.8 10021038
15:00+1s81697100 1.1 1000965
18:00+1ssw81697100 0.5 1001811
21:00−1wsw71383100 1.0 1005699